Location: B?dimalle
(17.1788°N, 80.5377°E)
Time: 18:04:30
(UTC+00:00)

Courier 1B - Visible Passes

Search period start: 18 February 2026 00:00
Search period end: 28 February 2026 00:00
Orbit: 962 x 1208 km, 28.3° (Epoch: 18 February)

Date Brightness Start Highest point End Pass type
(mag) Time Alt. Az. Time Alt. Az. Time Alt. Az.
18 Feb 8.2 13:29:43 10° W 13:36:43 56° NNW 13:42:36 17° NE visible
18 Feb 9.2 15:25:06 10° WNW 15:29:30 30° NW 15:29:30 30° NW visible
19 Feb 8.6 14:30:50 10° WNW 14:37:31 38° N 14:39:02 35° NNE visible
20 Feb 8.6 13:36:36 10° W 13:43:15 42° NNW 13:48:34 17° NE visible
20 Feb 9.4 15:31:54 10° WNW 15:35:27 26° NW 15:35:27 26° NW visible
21 Feb 8.7 14:37:45 10° WNW 14:44:15 34° N 14:44:58 34° N visible
22 Feb 8.7 13:43:34 10° WNW 13:49:56 35° N 13:54:29 19° NE visible
22 Feb 9.5 15:38:27 10° WNW 15:41:22 23° NW 15:41:22 23° NW visible
23 Feb 8.7 12:49:22 10° WNW 12:55:41 37° N 13:02:21 10° ENE visible
23 Feb 8.6 14:44:26 10° WNW 14:50:52 35° N 14:50:52 35° N visible
24 Feb 8.7 13:50:24 10° WNW 13:56:40 33° N 14:00:23 22° NE visible
24 Feb 9.6 15:44:45 10° WNW 15:47:17 23° NW 15:47:17 23° NW visible
25 Feb 8.8 12:56:19 10° WNW 13:02:24 33° N 13:08:50 10° ENE visible
25 Feb 8.5 14:50:53 10° WNW 14:56:48 41° N 14:56:48 41° N visible
26 Feb 8.5 13:57:00 10° WNW 14:03:23 37° N 14:06:21 27° NE visible
26 Feb 9.6 15:50:58 10° WNW 15:53:15 22° WNW 15:53:15 22° WNW visible
27 Feb 8.7 13:03:03 10° WNW 13:09:09 33° N 13:15:34 10° ENE visible
27 Feb 8.2 14:57:08 10° WNW 15:02:49 50° NNW 15:02:49 50° NNW visible
